Time,TemperatureF,DewpointF,PressureIn,WindDirection,WindDirectionDegrees,WindSpeedMPH,WindSpeedGustMPH,Humidity,HourlyPrecipIn,Conditions,Clouds,dailyrainin,SoftwareType,DateUTC
2013-03-12 00:02:00,34.0,26.0,30.12,West,272,0.0,0.0,71,0.00,,,0.00,,2013-03-12 05:02:00,
2013-03-12 00:12:00,34.0,26.0,30.12,West,272,0.0,0.0,71,0.00,,,0.00,,2013-03-12 05:12:00,
2013-03-12 00:22:00,34.0,25.0,30.12,West,273,0.0,0.0,69,0.00,,,0.00,,2013-03-12 05:22:00,
2013-03-12 00:32:00,34.0,25.0,30.13,West,273,0.0,0.0,70,0.00,,,0.00,,2013-03-12 05:32:00,
2013-03-12 00:42:00,34.0,25.0,30.13,West,273,0.0,0.0,70,0.00,,,0.00,,2013-03-12 05:42:00,
2013-03-12 00:52:00,33.0,25.0,30.14,West,273,0.0,0.0,73,0.00,,,0.00,,2013-03-12 05:52:00,
2013-03-12 01:02:00,33.0,26.0,30.14,West,273,0.0,0.0,74,0.00,,,0.00,,2013-03-12 06:02:00,
2013-03-12 01:12:00,33.0,26.0,30.14,West,273,0.0,0.0,74,0.00,,,0.00,,2013-03-12 06:12:00,
2013-03-12 01:22:00,32.0,25.0,30.14,West,273,0.0,0.0,75,0.00,,,0.00,,2013-03-12 06:22:00,
2013-03-12 01:32:00,33.0,26.0,30.14,West,273,0.0,0.0,75,0.00,,,0.00,,2013-03-12 06:32:00,
2013-03-12 01:42:00,33.0,26.0,30.14,West,273,0.0,0.0,75,0.00,,,0.00,,2013-03-12 06:42:00,
2013-03-12 01:52:00,32.0,27.0,30.14,West,273,0.0,0.0,80,0.00,,,0.00,,2013-03-12 06:52:00,
2013-03-12 02:02:00,34.0,26.0,30.14,NNE,23,0.0,0.0,71,0.00,,,0.00,,2013-03-12 07:02:00,
2013-03-12 02:12:00,34.0,26.0,30.14,NNE,23,0.0,0.0,71,0.00,,,0.00,,2013-03-12 07:12:00,
2013-03-12 02:22:00,34.0,25.0,30.14,NNE,23,0.0,0.0,69,0.00,,,0.00,,2013-03-12 07:22:00,
2013-03-12 02:32:00,36.0,24.0,30.14,North,1,0.0,1.0,61,0.00,,,0.00,,2013-03-12 07:32:00,
2013-03-12 02:42:00,36.0,24.0,30.14,North,1,0.0,1.0,61,0.00,,,0.00,,2013-03-12 07:42:00,
2013-03-12 02:52:00,39.0,23.0,30.14,NNE,16,0.0,1.0,52,0.00,,,0.00,,2013-03-12 07:52:00,
2013-03-12 03:02:00,40.0,22.0,30.15,NNE,16,0.0,0.0,48,0.00,,,0.00,,2013-03-12 08:02:00,
2013-03-12 03:12:00,40.0,22.0,30.15,NNE,16,0.0,0.0,48,0.00,,,0.00,,2013-03-12 08:12:00,
2013-03-12 03:22:00,39.0,21.0,30.16,NNE,16,0.0,0.0,49,0.00,,,0.00,,2013-03-12 08:22:00,
2013-03-12 03:33:00,37.0,24.0,30.16,WSW,239,0.0,2.0,58,0.00,,,0.00,,2013-03-12 08:33:00,
2013-03-12 03:42:00,37.0,24.0,30.16,WSW,239,0.0,2.0,58,0.00,,,0.00,,2013-03-12 08:42:00,
2013-03-12 03:52:00,36.0,24.0,30.17,WSW,253,0.0,2.0,61,0.00,,,0.00,,2013-03-12 08:52:00,
2013-03-12 04:03:00,35.0,23.0,30.17,WSW,253,0.0,0.0,62,0.00,,,0.00,,2013-03-12 09:03:00,
2013-03-12 04:12:00,35.0,23.0,30.17,WSW,253,0.0,0.0,62,0.00,,,0.00,,2013-03-12 09:12:00,
2013-03-12 04:22:00,34.0,23.0,30.18,WSW,253,0.0,0.0,65,0.00,,,0.00,,2013-03-12 09:22:00,
2013-03-12 04:32:00,34.0,25.0,30.17,North,356,0.0,1.0,69,0.00,,,0.00,,2013-03-12 09:32:00,
2013-03-12 04:42:00,34.0,25.0,30.17,North,356,0.0,1.0,69,0.00,,,0.00,,2013-03-12 09:42:00,
2013-03-12 04:52:00,33.0,24.0,30.20,North,356,0.0,0.0,70,0.00,,,0.00,,2013-03-12 09:52:00,
2013-03-12 05:02:00,33.0,25.0,30.21,North,356,0.0,0.0,71,0.00,,,0.00,,2013-03-12 10:02:00,
2013-03-12 05:12:00,33.0,25.0,30.21,North,356,0.0,0.0,71,0.00,,,0.00,,2013-03-12 10:12:00,
2013-03-12 05:22:00,34.0,26.0,30.21,North,356,0.0,0.0,72,0.00,,,0.00,,2013-03-12 10:22:00,
2013-03-12 05:32:00,34.0,26.0,30.21,North,356,0.0,0.0,71,0.00,,,0.00,,2013-03-12 10:32:00,
2013-03-12 05:42:00,34.0,26.0,30.21,North,356,0.0,0.0,71,0.00,,,0.00,,2013-03-12 10:42:00,
2013-03-12 05:52:00,34.0,26.0,30.21,North,356,0.0,0.0,71,0.00,,,0.00,,2013-03-12 10:52:00,
2013-03-12 06:02:00,35.0,27.0,30.24,North,356,0.0,1.0,72,0.00,,,0.00,,2013-03-12 11:02:00,
2013-03-12 06:12:00,35.0,27.0,30.24,North,356,0.0,1.0,72,0.00,,,0.00,,2013-03-12 11:12:00,
2013-03-12 06:22:00,36.0,27.0,30.24,NNE,16,0.0,1.0,69,0.00,,,0.00,,2013-03-12 11:22:00,
2013-03-12 06:32:00,37.0,27.0,30.24,NNE,16,0.0,0.0,67,0.00,,,0.00,,2013-03-12 11:32:00,
2013-03-12 06:42:00,37.0,27.0,30.24,NNE,16,0.0,0.0,67,0.00,,,0.00,,2013-03-12 11:42:00,
2013-03-12 06:52:00,37.0,27.0,30.24,NNE,16,0.0,0.0,66,0.00,,,0.00,,2013-03-12 11:52:00,
2013-03-12 07:02:00,36.0,26.0,30.24,NNE,16,0.0,0.0,68,0.00,,,0.00,,2013-03-12 12:02:00,
2013-03-12 07:12:00,36.0,26.0,30.24,NNE,16,0.0,0.0,68,0.00,,,0.00,,2013-03-12 12:12:00,
2013-03-12 07:22:00,35.0,26.0,30.25,NNE,16,0.0,0.0,70,0.00,,,0.00,,2013-03-12 12:22:00,
2013-03-12 07:32:00,35.0,27.0,30.25,NNE,16,0.0,0.0,73,0.00,,,0.00,,2013-03-12 12:32:00,
2013-03-12 07:42:00,35.0,27.0,30.25,NNE,16,0.0,0.0,73,0.00,,,0.00,,2013-03-12 12:42:00,
2013-03-12 07:52:00,35.0,27.0,30.25,NNE,16,0.0,0.0,72,0.00,,,0.00,,2013-03-12 12:52:00,
2013-03-12 08:02:00,35.0,29.0,30.26,NNE,16,0.0,0.0,78,0.00,,,0.00,,2013-03-12 13:02:00,
2013-03-12 08:12:00,35.0,29.0,30.26,NNE,16,0.0,0.0,78,0.00,,,0.00,,2013-03-12 13:12:00,
2013-03-12 08:22:00,35.0,28.0,30.27,NNE,16,0.0,0.0,75,0.00,,,0.00,,2013-03-12 13:22:00,
2013-03-12 08:32:00,36.0,29.0,30.28,ENE,64,0.0,0.0,75,0.00,,,0.00,,2013-03-12 13:32:00,
2013-03-12 08:42:00,36.0,29.0,30.28,ENE,64,0.0,0.0,75,0.00,,,0.00,,2013-03-12 13:42:00,
2013-03-12 08:52:00,37.0,29.0,30.28,ENE,64,0.0,0.0,73,0.00,,,0.00,,2013-03-12 13:52:00,
2013-03-12 09:02:00,38.0,29.0,30.29,WSW,238,0.0,1.0,70,0.00,,,0.00,,2013-03-12 14:02:00,
2013-03-12 09:12:00,38.0,29.0,30.29,WSW,238,0.0,1.0,70,0.00,,,0.00,,2013-03-12 14:12:00,
2013-03-12 09:22:00,39.0,30.0,30.30,SW,236,0.0,0.0,70,0.00,,,0.00,,2013-03-12 14:22:00,
2013-03-12 09:32:00,40.0,31.0,30.31,North,11,0.0,1.0,70,0.00,,,0.00,,2013-03-12 14:32:00,
2013-03-12 09:42:00,40.0,31.0,30.31,North,11,0.0,1.0,70,0.00,,,0.00,,2013-03-12 14:42:00,
2013-03-12 09:53:00,41.0,31.0,30.31,North,11,0.0,1.0,68,0.00,,,0.00,,2013-03-12 14:53:00,
2013-03-12 10:02:00,43.0,33.0,30.31,North,359,0.0,1.0,67,0.00,,,0.00,,2013-03-12 15:02:00,
2013-03-12 10:12:00,43.0,33.0,30.31,North,359,0.0,1.0,67,0.00,,,0.00,,2013-03-12 15:12:00,
2013-03-12 10:22:00,45.0,35.0,30.31,East,84,0.0,1.0,68,0.00,,,0.00,,2013-03-12 15:22:00,
2013-03-12 10:32:00,47.0,37.0,30.32,NE,35,0.0,2.0,68,0.00,,,0.00,,2013-03-12 15:32:00,
2013-03-12 10:42:00,47.0,37.0,30.32,NE,35,0.0,2.0,68,0.00,,,0.00,,2013-03-12 15:42:00,
2013-03-12 10:53:00,49.0,36.0,30.32,NNW,328,2.0,5.0,60,0.00,,,0.00,,2013-03-12 15:53:00,
2013-03-12 11:02:00,50.0,36.0,30.32,WNW,288,0.0,5.0,59,0.00,,,0.00,,2013-03-12 16:02:00,
2013-03-12 11:12:00,50.0,36.0,30.32,WNW,288,0.0,5.0,59,0.00,,,0.00,,2013-03-12 16:12:00,
2013-03-12 11:22:00,51.0,34.0,30.33,NE,41,4.0,7.0,52,0.00,,,0.00,,2013-03-12 16:22:00,
2013-03-12 11:33:00,52.0,32.0,30.33,NNW,335,1.0,6.0,46,0.00,,,0.00,,2013-03-12 16:33:00,
2013-03-12 11:43:00,52.0,32.0,30.33,NNW,335,1.0,6.0,46,0.00,,,0.00,,2013-03-12 16:43:00,
2013-03-12 11:53:00,52.0,33.0,30.33,NW,322,1.0,6.0,48,0.00,,,0.00,,2013-03-12 16:53:00,
2013-03-12 12:02:00,52.0,33.0,30.33,NW,322,1.0,6.0,48,0.00,,,0.00,,2013-03-12 17:02:00,
2013-03-12 12:12:00,52.0,33.0,30.33,NW,322,1.0,6.0,48,0.00,,,0.00,,2013-03-12 17:12:00,
2013-03-12 12:22:00,53.0,34.0,30.34,NNW,330,2.0,8.0,48,0.00,,,0.00,,2013-03-12 17:22:00,
2013-03-12 12:33:00,54.0,35.0,30.34,North,350,4.0,9.0,49,0.00,,,0.00,,2013-03-12 17:33:00,
2013-03-12 12:44:00,54.0,35.0,30.34,North,350,4.0,9.0,49,0.00,,,0.00,,2013-03-12 17:44:00,
2013-03-12 12:53:00,55.0,36.0,30.33,NW,321,0.0,6.0,49,0.00,,,0.00,,2013-03-12 17:53:00,
2013-03-12 13:02:00,56.0,36.0,30.33,West,259,1.0,6.0,46,0.00,,,0.00,,2013-03-12 18:02:00,
2013-03-12 13:13:00,55.0,34.0,30.33,WNW,294,1.0,6.0,45,0.00,,,0.00,,2013-03-12 18:13:00,
2013-03-12 13:23:00,55.0,34.0,30.33,WNW,294,1.0,6.0,45,0.00,,,0.00,,2013-03-12 18:23:00,
2013-03-12 13:33:00,56.0,34.0,30.33,West,274,2.0,5.0,44,0.00,,,0.00,,2013-03-12 18:33:00,
2013-03-12 13:42:00,56.0,34.0,30.33,West,274,2.0,5.0,44,0.00,,,0.00,,2013-03-12 18:42:00,
2013-03-12 13:53:00,56.0,34.0,30.33,West,274,2.0,5.0,44,0.00,,,0.00,,2013-03-12 18:53:00,
2013-03-12 14:03:00,56.0,34.0,30.33,West,274,2.0,5.0,44,0.00,,,0.00,,2013-03-12 19:03:00,
2013-03-12 14:13:00,56.0,34.0,30.33,West,274,2.0,5.0,44,0.00,,,0.00,,2013-03-12 19:13:00,
2013-03-12 14:23:00,57.0,34.0,30.32,NW,326,2.0,7.0,42,0.00,,,0.00,,2013-03-12 19:23:00,
2013-03-12 14:33:00,57.0,34.0,30.32,NW,325,1.0,6.0,41,0.00,,,0.00,,2013-03-12 19:33:00,
2013-03-12 14:43:00,57.0,34.0,30.32,NW,325,1.0,6.0,41,0.00,,,0.00,,2013-03-12 19:43:00,
2013-03-12 14:53:00,57.0,33.0,30.31,North,5,2.0,6.0,40,0.00,,,0.00,,2013-03-12 19:53:00,
2013-03-12 15:02:00,57.0,33.0,30.31,NNE,23,1.0,6.0,40,0.00,,,0.00,,2013-03-12 20:02:00,
2013-03-12 15:12:00,57.0,33.0,30.31,NNE,23,1.0,6.0,40,0.00,,,0.00,,2013-03-12 20:12:00,
2013-03-12 15:22:00,58.0,33.0,30.30,WNW,294,0.0,4.0,39,0.00,,,0.00,,2013-03-12 20:22:00,
2013-03-12 15:32:00,58.0,32.0,30.30,NNW,348,0.0,5.0,37,0.00,,,0.00,,2013-03-12 20:32:00,
2013-03-12 15:42:00,58.0,32.0,30.30,NNW,348,0.0,5.0,37,0.00,,,0.00,,2013-03-12 20:42:00,
2013-03-12 15:53:00,58.0,32.0,30.30,NNE,24,2.0,7.0,37,0.00,,,0.00,,2013-03-12 20:53:00,
2013-03-12 16:02:00,58.0,32.0,30.30,NNE,24,2.0,7.0,37,0.00,,,0.00,,2013-03-12 21:02:00,
2013-03-12 16:12:00,58.0,32.0,30.30,NNE,24,2.0,7.0,37,0.00,,,0.00,,2013-03-12 21:12:00,
2013-03-12 16:22:00,59.0,33.0,30.29,North,351,1.0,4.0,37,0.00,,,0.00,,2013-03-12 21:22:00,
2013-03-12 16:32:00,59.0,31.0,30.29,NW,326,2.0,5.0,34,0.00,,,0.00,,2013-03-12 21:32:00,
2013-03-12 16:43:00,59.0,31.0,30.29,NW,326,2.0,5.0,34,0.00,,,0.00,,2013-03-12 21:43:00,
2013-03-12 16:52:00,59.0,28.0,30.29,West,281,2.0,4.0,30,0.00,,,0.00,,2013-03-12 21:52:00,
2013-03-12 17:02:00,59.0,28.0,30.29,NW,324,1.0,6.0,30,0.00,,,0.00,,2013-03-12 22:02:00,
2013-03-12 17:12:00,59.0,28.0,30.29,NW,324,1.0,6.0,30,0.00,,,0.00,,2013-03-12 22:12:00,
2013-03-12 17:22:00,58.0,27.0,30.29,NNW,340,0.0,7.0,30,0.00,,,0.00,,2013-03-12 22:22:00,
2013-03-12 17:33:00,59.0,28.0,30.29,WNW,295,0.0,7.0,31,0.00,,,0.00,,2013-03-12 22:33:00,
2013-03-12 17:42:00,59.0,28.0,30.29,WNW,295,0.0,7.0,31,0.00,,,0.00,,2013-03-12 22:42:00,
2013-03-12 17:53:00,59.0,28.0,30.29,NNW,334,2.0,8.0,30,0.00,,,0.00,,2013-03-12 22:53:00,
2013-03-12 18:02:00,59.0,28.0,30.28,NW,307,3.0,7.0,30,0.00,,,0.00,,2013-03-12 23:02:00,
2013-03-12 18:12:00,59.0,28.0,30.28,NW,307,3.0,7.0,30,0.00,,,0.00,,2013-03-12 23:12:00,
2013-03-12 18:22:00,58.0,28.0,30.28,NW,304,4.0,8.0,31,0.00,,,0.00,,2013-03-12 23:22:00,
2013-03-12 18:34:00,58.0,28.0,30.29,NW,320,2.0,7.0,31,0.00,,,0.00,,2013-03-12 23:34:00,
2013-03-12 18:43:00,58.0,28.0,30.29,NW,320,2.0,7.0,31,0.00,,,0.00,,2013-03-12 23:43:00,
2013-03-12 18:52:00,57.0,27.0,30.29,NW,315,2.0,6.0,31,0.00,,,0.00,,2013-03-12 23:52:00,
2013-03-12 19:02:00,56.0,28.0,30.30,WNW,284,0.0,8.0,34,0.00,,,0.00,,2013-03-13 00:02:00,
2013-03-12 19:12:00,56.0,28.0,30.30,WNW,284,0.0,8.0,34,0.00,,,0.00,,2013-03-13 00:12:00,
2013-03-12 19:23:00,56.0,28.0,30.30,West,275,0.0,5.0,34,0.00,,,0.00,,2013-03-13 00:23:00,
2013-03-12 19:33:00,55.0,26.0,30.31,WNW,292,2.0,4.0,33,0.00,,,0.00,,2013-03-13 00:33:00,
2013-03-12 19:42:00,55.0,26.0,30.31,WNW,292,2.0,4.0,33,0.00,,,0.00,,2013-03-13 00:42:00,
2013-03-12 19:53:00,54.0,28.0,30.32,NW,319,0.0,6.0,36,0.00,,,0.00,,2013-03-13 00:53:00,
2013-03-12 20:02:00,53.0,27.0,30.33,NW,307,1.0,4.0,36,0.00,,,0.00,,2013-03-13 01:02:00,
2013-03-12 20:12:00,53.0,27.0,30.33,NW,307,1.0,4.0,36,0.00,,,0.00,,2013-03-13 01:12:00,
2013-03-12 20:22:00,53.0,27.0,30.34,WNW,299,0.0,3.0,37,0.00,,,0.00,,2013-03-13 01:22:00,
2013-03-12 20:32:00,52.0,27.0,30.35,NW,319,0.0,3.0,38,0.00,,,0.00,,2013-03-13 01:32:00,
2013-03-12 20:42:00,52.0,27.0,30.35,NW,319,0.0,3.0,38,0.00,,,0.00,,2013-03-13 01:42:00,
2013-03-12 20:53:00,52.0,28.0,30.36,NNW,345,4.0,9.0,39,0.00,,,0.00,,2013-03-13 01:53:00,
2013-03-12 21:02:00,51.0,28.0,30.36,North,8,2.0,7.0,40,0.00,,,0.00,,2013-03-13 02:02:00,
2013-03-12 21:12:00,51.0,28.0,30.36,North,8,2.0,7.0,40,0.00,,,0.00,,2013-03-13 02:12:00,
2013-03-12 21:22:00,49.0,26.0,30.37,North,11,3.0,8.0,41,0.00,,,0.00,,2013-03-13 02:22:00,
2013-03-12 21:32:00,49.0,27.0,30.38,NNW,345,3.0,7.0,42,0.00,,,0.00,,2013-03-13 02:32:00,
2013-03-12 21:42:00,49.0,27.0,30.38,NNW,345,3.0,7.0,42,0.00,,,0.00,,2013-03-13 02:42:00,
2013-03-12 21:52:00,48.0,27.0,30.38,North,352,0.0,5.0,44,0.00,,,0.00,,2013-03-13 02:52:00,
2013-03-12 22:02:00,47.0,26.0,30.39,NNE,22,2.0,9.0,44,0.00,,,0.00,,2013-03-13 03:02:00,
2013-03-12 22:12:00,47.0,26.0,30.39,NNE,22,2.0,9.0,44,0.00,,,0.00,,2013-03-13 03:12:00,
2013-03-12 22:22:00,47.0,27.0,30.40,NNW,328,1.0,9.0,45,0.00,,,0.00,,2013-03-13 03:22:00,
2013-03-12 22:32:00,46.0,26.0,30.40,NNW,333,0.0,5.0,46,0.00,,,0.00,,2013-03-13 03:32:00,
2013-03-12 22:42:00,46.0,26.0,30.40,NNW,333,0.0,5.0,46,0.00,,,0.00,,2013-03-13 03:42:00,
2013-03-12 22:53:00,45.0,25.0,30.41,North,349,1.0,5.0,46,0.00,,,0.00,,2013-03-13 03:53:00,
2013-03-12 23:02:00,45.0,24.0,30.41,North,356,1.0,6.0,44,0.00,,,0.00,,2013-03-13 04:02:00,
2013-03-12 23:13:00,45.0,24.0,30.41,North,356,1.0,6.0,44,0.00,,,0.00,,2013-03-13 04:13:00,
2013-03-12 23:22:00,45.0,24.0,30.42,NW,315,0.0,5.0,43,0.00,,,0.00,,2013-03-13 04:22:00,
2013-03-12 23:32:00,44.0,23.0,30.42,NNW,338,0.0,3.0,44,0.00,,,0.00,,2013-03-13 04:32:00,
2013-03-12 23:42:00,44.0,23.0,30.42,NNW,338,0.0,3.0,44,0.00,,,0.00,,2013-03-13 04:42:00,
2013-03-12 23:53:00,43.0,23.0,30.42,NNW,345,1.0,3.0,45,0.00,,,0.00,,2013-03-13 04:53:00,